7 * 24
多渠道服务支持
STARLINK-32610 是 SpaceX Starlink 卫星互联网项目中的第 32610 颗卫星。该卫星属于星链计划的中轨道卫星群,旨在为全球用户提供高速、低延迟的互联网服务。它于近期由猎鹰 9 号火箭发射入轨,加入星链星座,增强网络覆盖与连接稳定性。该卫星采用先进推进和通信技术,支持自动避碰功能,以确保太空安全。星链项目持续扩展,致力于实现全球宽带接入目标。
美国
(US)
| 数据来源 | 国际轨道数据 |
| 星历时间: | 2025-12-19T12:11:36+0800 1天前 查看轨道信息 |
| 半长轴: | 6861.116km |
| 偏心率: | 0.0001126 |
| 轨道倾角: | 43.004° |
| 近地点辐角 | 343.458° |
| 升交点赤经 | 274.754° |
| 平近点角 | 16.623° |
| 近地点: | 482.206km |
| 远地点: | 483.752km |
| 周期: | 94.265分钟 |
| 每日圈数: | 15.276035 |